STARLINK-11591, 63116

Orbit data source: Space-Track

STARLINK-11591, 63116 is a payload satellite owned by SpaceX/Seattle (US) in LEO that was launched on Thu, 27 Feb 2025 UTC via an FALCON 9 launch vehicle from the Air Force Eastern Test Range (AFETR). Payload-class satellites include a variety of spacecraft equipped with specific instruments for various scientific and technological missions. These include communications satellites like Starlink; space stations such as the ISS; scientific satellites like the Hubble; Earth observation satellites from companies like Planet Labs, Umbra, and HawkEye 360; GPS; miniature CubeSats for education and research; and military/defense satellites.

Loading next visibility...
Identifier
63116, 2025-039N
Orbit
LEO
Last TLE update
20 hours ago
Origin
Manufacturer
SpaceX/Seattle
Mission
Operational Commercial Communications
Bus & Motor
STARLINK V2M, Unknown motor
Mass
730 kg wet, ~700 kg dry
Launch date (UTC)
2025-02-27 (2 months ago)
Launch vehicle
FALCON 9
Launch site
Air Force Eastern Test Range (AFETR)
Object type
Payload
Rocket body
Debris
Shape & HBR
Box + 2 Pan, 29 m
Radar Cross Section
36.964 m², Large (>1 m²)

Expand to show TLE details & history

TLE from 20 hours ago
0 STARLINK-11591
1 63116U 25039N   25128.43148146  .00007743  00000-0  47379-4 0  9990
2 63116  42.9991 277.9699 0001742 271.3088  88.7583 15.77826476 11593
Epoch: 2025-05-08T10:21Z
Definitive object data (Epoch: 2025-05-08T10:21:19.998Z)
Latitude
0.00002°
Longitude
-103.86547°
Altitude
336.345 km
Speed
7.709 km/s
True Right ascension
18h 31m 52s
True Declination
0° 00' 00"
Sunlit
Object was in full shadow at TLE epoch
Visualization TLE readout
Latitude
22.25506°
Longitude
45.09066°
Altitude
336.86 km
Speed
7.71 km/s
Apparent Right ascension
03h 45m 43s
Apparent Declination
-8° 04' 14"
Sunlit
Object is in daylight
Visualization observer readout
Local Sidereal Time
14:52:15
Azimuth
335.845° NNW
Elevation
-55.986°
Doppler factor
1
Orbital elements
Apogee altitude
339.758 km
Perigee altitude
337.418 km
Semi-major axis
6,716.725 km
Eccentricity
0.0001742
Inclination
42.9991°
RAAN
277.9699°
Arg. of periapsis
271.3088°
True anomaly
88.77826°
Mean anomaly
88.7583°
Eccentric anomaly
88.76828°
Mean motion
3.94282 °/min
BSTAR
0.000047379
Orbital period
91.31 mins
Loading maneuver chart data...
Loading SW <> Apogee altitude chart data...
Loading historical data...
Loading historical data...
Loading historical data...
Loading historical data...
Loading historical data...
Loading historical data...
Loading historical data...

STARLINK-11591 Visibility forecast

Observer location: undefined°, undefined°

Span
Click to sort rows by Start time (UTC) header in descending order
Start Az.
Max El. time (UTC)
Max El. Az.
Max El.
End time (UTC)
End Az.
4 mins2025-05-09 17:09:22.183Z295.527° NW2025-05-09 17:11:22.183Z56.567° ENE40.444°2025-05-09 17:13:22.183Z96.366° ESE
|